Weather in Myakishevo

Russia / Pskov Oblast     56°34′05″N   28°54′39″E
temp.,
°C
wind,
m/s
gust,
m/s
humid.,
%
clouds,
%
prec.,
mm/h
press.,
hPa
HPBL,
m
13 june, sun
sun1300:00+13sse259684 1.1 100399
03:00+13sse2597100 1.6 1002116
06:00+13w2599100 0.0 1002276
09:00+13nw2695100 0.1 1003419
12:00+13nw2596100 0.8 1004362
15:00+14nw3483100 0.8 1006501
18:00+16nnw367299 0.0 1006760
21:00+14nnw41189100 0.0 1008663
14 june, mon
mon1400:00+13n5118759 0.0 1010674
03:00+11n51290100 0.0 1012599
06:00+11n4128494 0.0 1014681
09:00+16n476328 0.0 1015832
12:00+20n45491 0.0 10161370
15:00+22n334330 0.0 10161705
18:00+22n224548 0.0 10151722
21:00+17nnw267355 0.0 1016145
15 june, tue
tue1500:00+13nne117736 0.0 101611
03:00+13w117413 0.0 101522
06:00+12w267910 0.0 1015161
09:00+17wsw3654100 0.0 1015620
12:00+21wsw4649100 0.0 10131294
15:00+21w5757100 0.1 10121466
18:00+16w2892100 0.8 1013471
21:00+15wsw2595100 0.9 1013152
16 june, wed
wed1600:00+13wnw25971 0.0 1014116
03:00+9nw28955 0.0 1016170
06:00+9nw279572 0.0 1017207
09:00+15nnw35685 0.0 1018615
12:00+20n3543100 0.0 10191654
15:00+21nnw453791 0.0 10201974
18:00+21nnw45405 0.0 10211752
21:00+15nne126722 0.0 102212
17 june, thu
thu1700:00+12ne11715 0.0 102310
03:00+10ene00744 0.0 102510
06:00+12ne00738 0.0 102615
09:00+19ne11495 0.0 1026434
12:00+24e113573 0.0 10261528
15:00+25ne113397 0.0 10261865
18:00+24ene01365 0.0 10251864
21:00+18se23715 0.0 102639